Terug naar catalogus

QIANFAN-216

ActiefCommunicatiePO
NORAD 69815·PAYLOAD·🇨🇳 China

Gelanceerd Jul 4, 2026 vanaf Taiyuan Satellite Launch Center

Loading…

Volgende Passages (komende 24 uur)

TLE

VersSource: Space-Track

Epoch: Sep 14, 2026, 21:05 UTC

1 69815U 26153R   26257.87894924 -.01839007  00000-0 -11305+1 0  9999
2 69815  88.9973 352.0076 0009067 239.0879 120.9414 14.09346878 10303

Volg QIANFAN-216 in realtime met AllMySat

Download on the App Store